STARLINK-1715 (46671 NORAD) Tracking and Keplerian Element Data

This shows tracking and keplerian element data for the satellite.

Feedback or suggestion? Click here.




ElementValue
Catalog46671
NameSTARLINK-1715
Epoch Orbit180
Epoch Day20.91667824
Epoch Year2021
RAAN18.2973
Inclination53.0546
Eccentricity0.0001395
Argument of Perigee87.8059
Mean Anonmoly104.7855
Mean Motion15.06378229
Decay Rate-9.371E-05
L11 46671U 20073B 21020.91667824 -.00009371 00000-0 -61139-3 0 9999
L22 46671 53.0546 18.2973 0001395 87.8059 104.7855 15.06378229 1806

Live tracking and technical data element details for STARLINK-1715 (NORAD 46671). STARLINK-1715 can be tracked NOW for your location showing map with azimuth and elevation plus other details from your city location.

Track the satellite on the map from your city or location and see movement details for azimuth, elevation, latitude, longitude, range, height, and movement on the map or in text.







IsCatalogInMostPopularTable: catalog: 46671, numindb: 29
Update: records affected: 1



GetName: 46671 STARLINK-1715

Hit Count: updated at: Fri, 22 Jan 2021 16:23:02 GMT